This is the latest recevied weather packets stored in our database for station/object PY2FLB-13. If no packets are shown the sender has not sent any weather packets the latest 10 day(s).
| Time | Temp. | Humidity | Pressure | Rain* | Wind** | Luminosity | Snow |
|---|---|---|---|---|---|---|---|
| 1777222735 | 31.67° C | 35% | 1008.8 hPa | - | - | - | - |
| 1777222436 | 32.22° C | 35% | 1008.7 hPa | - | - | - | - |
| 1777222136 | 31.67° C | 35% | 1008.9 hPa | - | - | - | - |
| 1777221835 | 31.67° C | 36% | 1008.9 hPa | - | - | - | - |
| 1777221536 | 31.67° C | 35% | 1009.1 hPa | - | - | - | - |
| 1777221235 | 31.67° C | 35% | 1009.1 hPa | - | - | - | - |
| 1777220936 | 31.67° C | 35% | 1009.3 hPa | - | - | - | - |
| 1777220635 | 31.11° C | 36% | 1009.4 hPa | - | - | - | - |
| 1777220336 | 31.67° C | 35% | 1009.5 hPa | - | - | - | - |
| 1777220035 | 31.11° C | 36% | 1009.7 hPa | - | - | - | - |
| 1777219735 | 31.11° C | 36% | 1009.7 hPa | - | - | - | - |
| 1777219436 | 31.11° C | 36% | 1009.8 hPa | - | - | - | - |
| 1777219136 | 31.11° C | 36% | 1009.9 hPa | - | - | - | - |
| 1777218830 | 31.11° C | 36% | 1009.9 hPa | - | - | - | - |
| 1777218536 | 30.56° C | 37% | 1010.1 hPa | - | - | - | - |
| 1777218236 | 30.56° C | 37% | 1010.1 hPa | - | - | - | - |
| 1777217935 | 30.56° C | 38% | 1010.2 hPa | - | - | - | - |
| 1777217635 | 30.56° C | 37% | 1010.3 hPa | - | - | - | - |
| 1777217336 | 30° C | 39% | 1010.3 hPa | - | - | - | - |
| 1777217036 | 30° C | 40% | 1010.6 hPa | - | - | - | - |
| 1777216736 | 30° C | 39% | 1010.5 hPa | - | - | - | - |
| 1777216436 | 30° C | 40% | 1010.6 hPa | - | - | - | - |
| 1777216136 | 30° C | 40% | 1010.7 hPa | - | - | - | - |
| 1777215836 | 30° C | 41% | 1010.8 hPa | - | - | - | - |
| 1777215539 | 30° C | 41% | 1010.9 hPa | - | - | - | - |
* Rain since midnight (hover to see other rain measurements)
** Current wind speed in m/s (hover to see current wind gust speed)